Waarnemingen

Advertentie
Mijn weer
UFS TW Ems, Duitsland (10004): temperatuur & dauwpunt: 09.08.2018 01:00:00 - 15.08.2018 01:00:00 (CEST)UFS TW Ems, Duitsland (10004): windsnelheid & windstoten: 09.08.2018 01:00:00 - 15.08.2018 01:00:00 (CEST)UFS TW Ems, Duitsland (10004): windrichting: 09.08.2018 01:00:00 - 15.08.2018 01:00:00 (CEST)UFS TW Ems, Duitsland (10004): luchtdruk: 09.08.2018 01:00:00 - 15.08.2018 01:00:00 (CEST)UFS TW Ems, Duitsland (10004): zicht: 09.08.2018 01:00:00 - 15.08.2018 01:00:00 (CEST)UFS TW Ems, Duitsland (10004): Zonneschijnduur: 09.08.2018 01:00:00 - 15.08.2018 01:00:00 (CEST)
Datum & Tijd tt [°C] td [°C] ff [km/u] ff [kn] fx [km/u] fx [kn] dd ppp [hPa] vv [km] sd [min]
15.08.2018 01:00:00 - - - - - - - - - -
15.08.2018 00:00:00 - - - - - - - - - -
14.08.2018 23:00:00 18,1 15,5 25 14 - - WZW 1014,9 10 0
14.08.2018 22:00:00 - - - - - - - - - -
14.08.2018 21:00:00 18,2 14,3 29 16 - - W 1014,5 10 0
14.08.2018 20:00:00 - - - - - - - - - -
14.08.2018 19:00:00 - - - - - - - - - -
14.08.2018 18:00:00 18,3 14,2 40 21 50 27 WNW 1013,4 10 48
14.08.2018 17:00:00 18,5 15,4 36 19 - - WNW 1012,9 10 0
14.08.2018 16:00:00 18,4 15,1 36 19 50 27 WNW 1012,1 10 0
14.08.2018 15:00:00 18,5 16,3 40 21 50 27 WNW 1011,3 10 0
14.08.2018 14:00:00 18,5 17,4 32 18 - - WNW 1010,3 9 6
14.08.2018 13:00:00 18,7 16,5 18 10 - - WNW 1009,6 10 18
14.08.2018 12:00:00 18,7 17,0 18 10 - - W 1009,2 10 18
14.08.2018 11:00:00 18,4 16,2 22 12 - - WNW 1008,6 10 12
14.08.2018 10:00:00 - - - - - - - - - -
14.08.2018 09:00:00 - - - - - - - - - -
14.08.2018 08:00:00 18,8 16,4 14 8 - - NW 1006,6 10 60
14.08.2018 07:00:00 18,4 16,4 11 6 - - NW 1006,0 10 30
14.08.2018 06:00:00 18,2 16,7 11 6 - - WNW 1005,5 10 0
14.08.2018 05:00:00 18,1 16,7 11 6 - - W 1005,4 10 0
14.08.2018 04:00:00 18,0 16,5 14 8 - - W 1005,2 10 0
14.08.2018 03:00:00 18,1 16,6 11 6 - - W 1005,0 10 0
14.08.2018 02:00:00 18,3 16,7 14 8 - - W 1005,2 10 0
14.08.2018 01:00:00 18,3 16,4 18 10 - - WZW 1005,1 10 0
14.08.2018 00:00:00 18,5 16,6 22 12 - - W 1005,0 10 0
13.08.2018 23:00:00 18,6 16,6 22 12 - - W 1004,6 10 0
13.08.2018 22:00:00 18,0 16,8 14 8 - - Z 1004,7 10 0
13.08.2018 21:00:00 18,6 16,2 11 6 - - ZZO 1004,5 10 0
13.08.2018 20:00:00 18,3 16,3 11 6 - - ZO 1004,1 10 6
13.08.2018 19:00:00 18,4 16,3 11 6 - - OZO 1004,1 10 0
13.08.2018 18:00:00 18,6 16,4 11 6 - - OZO 1004,2 10 0
13.08.2018 17:00:00 19,2 16,5 4 2 - - ONO 1004,2 10 0
13.08.2018 16:00:00 19,5 15,6 4 2 - - NNO 1004,3 10 0
13.08.2018 15:00:00 19,4 15,7 7 4 - - O 1004,4 10 0
13.08.2018 14:00:00 18,9 16,6 7 4 - - ZW 1004,9 10 0
13.08.2018 13:00:00 19,6 15,6 29 16 - - ZZO 1005,0 10 0
13.08.2018 12:00:00 19,3 17,6 11 6 - - ZO 1005,0 10 0
13.08.2018 11:00:00 19,4 17,8 18 10 - - OZO 1004,7 10 0
13.08.2018 10:00:00 19,3 17,5 22 12 - - OZO 1004,8 10 0
13.08.2018 09:00:00 19,3 16,5 22 12 - - O 1005,3 10 0
13.08.2018 08:00:00 19,2 17,1 14 8 - - OZO 1005,5 10 0
13.08.2018 07:00:00 18,8 17,3 11 6 - - O 1005,3 10 0
13.08.2018 06:00:00 19,2 17,4 7 4 - - ZO 1006,1 10 0
13.08.2018 05:00:00 19,1 18,0 14 8 - - Z 1006,8 10 0
13.08.2018 04:00:00 19,0 18,3 11 6 - - Z 1007,0 10 0
13.08.2018 03:00:00 19,3 18,1 7 4 - - Z 1007,4 10 0
13.08.2018 02:00:00 19,5 17,6 11 6 - - ZW 1007,9 10 0
13.08.2018 01:00:00 19,4 18,1 11 6 - - ZZW 1008,2 10 0
13.08.2018 00:00:00 19,8 17,0 7 4 - - Z 1008,7 10 0
12.08.2018 23:00:00 19,6 17,3 14 8 - - WZW 1009,0 10 0
12.08.2018 22:00:00 20,1 16,3 18 10 - - ZW 1009,2 10 0
12.08.2018 21:00:00 20,0 16,5 22 12 - - ZW 1009,4 10 0
12.08.2018 20:00:00 20,0 16,3 29 16 - - ZW 1009,5 10 0
12.08.2018 19:00:00 19,9 16,6 32 18 - - ZW 1009,8 10 0
12.08.2018 18:00:00 19,8 17,3 25 14 50 27 ZW 1010,2 10 0
12.08.2018 17:00:00 - - - - - - - - - -
12.08.2018 16:00:00 19,7 16,9 32 18 47 25 ZZW 1010,9 10 6
12.08.2018 15:00:00 - - - - - - - - - -
12.08.2018 14:00:00 19,0 15,3 32 18 - - Z 1012,0 10 0
12.08.2018 13:00:00 17,1 15,5 32 18 - - Z 1012,9 10 0
12.08.2018 12:00:00 16,0 14,8 32 18 - - ZZO 1013,5 10 0
12.08.2018 11:00:00 15,5 12,4 32 18 - - Z 1014,2 6 0
12.08.2018 10:00:00 16,8 11,7 36 19 - - Z 1014,7 10 0
12.08.2018 09:00:00 - - - - - - - - - -
12.08.2018 08:00:00 17,5 11,4 29 16 - - Z 1015,4 10 0
12.08.2018 07:00:00 17,6 10,6 29 16 - - ZZW 1015,7 10 0
12.08.2018 06:00:00 17,6 11,3 25 14 - - ZW 1016,1 10 0
12.08.2018 05:00:00 17,4 10,5 22 12 - - ZW 1016,6 10 0
12.08.2018 04:00:00 17,1 11,4 25 14 - - WZW 1017,1 10 0
12.08.2018 03:00:00 17,0 11,0 29 16 - - WZW 1017,4 10 0
12.08.2018 02:00:00 16,9 10,4 29 16 - - WZW 1017,9 10 0
12.08.2018 01:00:00 16,8 11,5 25 14 - - WZW 1018,5 10 0
12.08.2018 00:00:00 16,7 11,7 25 14 - - WZW 1019,1 10 0
11.08.2018 23:00:00 16,7 11,3 29 16 - - WZW 1019,5 10 0
11.08.2018 22:00:00 16,9 11,5 29 16 - - WZW 1019,6 10 0
11.08.2018 21:00:00 17,3 12,7 32 18 - - W 1019,3 10 12
11.08.2018 20:00:00 17,2 12,2 22 12 - - W 1019,4 10 30
11.08.2018 19:00:00 17,4 11,9 29 16 47 25 W 1019,5 10 24
11.08.2018 18:00:00 17,5 11,7 32 18 - - W 1019,6 10 36
11.08.2018 17:00:00 17,7 11,9 32 18 - - W 1019,4 10 54
11.08.2018 16:00:00 17,4 12,4 25 14 - - NW 1019,3 10 48
11.08.2018 15:00:00 17,1 11,9 32 18 - - WNW 1019,0 10 54
11.08.2018 14:00:00 17,3 11,7 32 18 - - WNW 1018,4 10 48
11.08.2018 13:00:00 17,2 12,1 32 18 47 25 W 1017,9 10 60
11.08.2018 12:00:00 17,0 11,4 36 19 47 25 W 1017,4 10 54
11.08.2018 11:00:00 16,6 11,0 36 19 - - W 1016,8 10 60
11.08.2018 10:00:00 15,8 10,5 40 21 54 29 W 1016,0 10 36
11.08.2018 09:00:00 14,4 11,9 43 23 68 37 WNW 1015,4 8 0
11.08.2018 08:00:00 14,4 11,5 32 18 - - W 1015,2 10 0
11.08.2018 07:00:00 14,6 11,7 32 18 50 27 WZW 1014,7 6 0
11.08.2018 06:00:00 15,4 11,2 32 18 50 27 W 1014,1 10 0
11.08.2018 05:00:00 15,7 12,2 40 21 - - W 1014,0 10 0
11.08.2018 04:00:00 16,2 11,8 43 23 54 29 WZW 1013,9 10 0
11.08.2018 03:00:00 16,2 12,0 40 21 54 29 WZW 1013,9 10 0
11.08.2018 02:00:00 15,7 12,5 32 18 - - WZW 1013,9 10 0
11.08.2018 01:00:00 15,0 13,1 32 18 65 35 ZW 1014,5 10 0
11.08.2018 00:00:00 16,2 14,7 58 31 72 39 Z 1013,8 1,5 0
10.08.2018 23:00:00 15,7 13,6 50 27 - - ZZO 1014,8 10 0
10.08.2018 22:00:00 14,9 12,0 25 14 61 33 ZZW 1016,5 10 0
10.08.2018 21:00:00 18,1 11,5 29 16 - - Z 1016,5 10 0
10.08.2018 20:00:00 18,0 11,4 29 16 - - ZZW 1017,0 10 12
10.08.2018 19:00:00 17,8 11,2 25 14 - - ZZW 1017,4 10 36
10.08.2018 18:00:00 17,1 12,5 29 16 50 27 ZW 1017,9 10 36
10.08.2018 17:00:00 17,0 11,6 32 18 - - ZW 1017,9 10 54
10.08.2018 16:00:00 18,1 11,5 40 21 47 25 ZW 1017,8 10 48
10.08.2018 15:00:00 17,4 13,7 29 16 - - Z 1017,6 10 24
10.08.2018 14:00:00 16,2 13,1 32 18 - - Z 1017,5 10 30
10.08.2018 13:00:00 - - - - - - - - - -
10.08.2018 12:00:00 16,8 10,4 25 14 58 31 ZW 1016,8 5 18
10.08.2018 11:00:00 15,3 10,2 47 25 - - ZW 1016,4 2,4 0
10.08.2018 10:00:00 16,3 9,4 36 19 61 33 ZW 1015,7 10 12
10.08.2018 09:00:00 16,8 12,3 50 27 61 33 WZW 1015,1 10 6
10.08.2018 08:00:00 16,6 10,8 43 23 - - W 1014,0 10 12
10.08.2018 07:00:00 16,6 11,5 54 29 72 39 W 1012,5 10 0
10.08.2018 06:00:00 15,5 13,1 58 31 72 39 W 1011,9 8 0
10.08.2018 05:00:00 16,5 13,3 54 29 - - W 1010,8 7 0
10.08.2018 04:00:00 15,7 13,9 61 33 76 41 W 1009,3 8 0
10.08.2018 03:00:00 17,1 14,9 65 35 79 43 W 1007,0 5 0
10.08.2018 02:00:00 17,4 15,7 50 27 - - WNW 1004,8 10 0
10.08.2018 01:00:00 16,3 16,0 61 33 76 41 W 1003,2 0,8 0
10.08.2018 00:00:00 17,5 16,6 36 19 54 29 NW 1002,3 10 0
09.08.2018 23:00:00 17,6 16,9 43 23 - - NNW 1002,7 10 0
09.08.2018 22:00:00 18,5 18,4 29 16 54 29 N 1003,7 10 0
09.08.2018 21:00:00 17,8 17,8 36 19 54 29 NNO 1003,6 2,3 0
09.08.2018 20:00:00 17,5 16,3 40 21 - - NNO 1004,8 10 0
09.08.2018 19:00:00 17,9 15,0 32 18 - - NO 1007,3 9 0
09.08.2018 18:00:00 18,7 15,8 29 16 - - NNO 1008,1 9 0
09.08.2018 17:00:00 19,3 15,7 14 8 - - NO 1011,3 10 0
09.08.2018 16:00:00 19,3 15,1 18 10 - - NO 1010,9 10 6
09.08.2018 15:00:00 19,5 14,3 14 8 - - O 1012,1 10 30
09.08.2018 14:00:00 19,4 14,1 14 8 - - OZO 1013,0 10 60
09.08.2018 13:00:00 19,2 14,1 14 8 - - ZO 1013,6 10 60
09.08.2018 12:00:00 19,1 15,1 14 8 - - ZZO 1014,2 10 60
09.08.2018 11:00:00 18,8 14,5 18 10 - - ZZO 1014,5 7 60
09.08.2018 10:00:00 18,7 14,4 22 12 - - Z 1014,7 10 60
09.08.2018 09:00:00 18,5 15,5 22 12 - - Z 1014,6 10 36
09.08.2018 08:00:00 18,5 16,3 22 12 - - Z 1014,8 10 0
09.08.2018 07:00:00 18,7 14,8 7 4 - - ZZO 1014,3 10 0
09.08.2018 06:00:00 18,8 14,8 7 4 - - ZZO 1014,5 10 0
09.08.2018 05:00:00 18,7 14,3 7 4 - - ZZW 1014,7 10 0
09.08.2018 04:00:00 18,7 15,1 11 6 - - WZW 1014,6 10 0
09.08.2018 03:00:00 18,7 15,2 7 4 - - WZW 1014,8 10 0
09.08.2018 02:00:00 18,7 15,1 7 4 - - ZW 1014,6 10 0
09.08.2018 01:00:00 18,6 14,4 18 10 - - WZW 1014,5 10 0

tt = temperatuur
td = dauwpunt
ff = windsnelheid
fx = windstoten
dd = windrichting
ppp = luchtdruk
vv = zicht
sd = Zonneschijnduur

Weerstations in de omgeving